AMAZONAS 5

Last updated on Thu Nov 21 2024 00:02:43 GMT+0000 (Coordinated Universal Time)

1 42934U 17053A 24324.35402712 -.00000280 00000+0 00000+0 0 9996 2 42934 0.0322 323.4035 0004384 306.3399 215.5859 1.00270987 26280
UTC large
Height (km)
Speed (km/s)
/
Latitude / Longitude
Inclination (degrees)
Orbital Period (minutes)
Azimuth
Elevation
Range (km)
Doppler Factor

Next 0 passes for location: London (51.5072 / 0.1276)

Sorry there are no passes over London.